Location: Quedlinburg
(51.7921°N, 11.1414°E)
Time: 02:35:36
(UTC+02:00)

METEOR M2 - Pass Details

Date: 19 March 2026
Orbit: 817 x 824 km, 98.5° (Epoch: 13 April)

Event Time Altitude Azimuth Distance (km) Brightness Sun altitude
Rises 04:15:21 0° 18° (NNE) 3,374 ? -19.6°
Reaches altitude 10° 04:17:48 10° 24° (NNE) 2,437 ? -19.3°
Maximum altitude 04:23:01 48° 99° (E) 1,074 ? -18.5°
Drops below altitude 10° 04:28:11 10° 173° (S) 2,418 ? -17.8°
Sets 04:30:37 0° 179° (S) 3,346 ? -17.5°
